This demonstration page uses our WeatherBlox Daily Observations layout. Learn more.

Left ArrowRight Arrow

41.55636, -103.73856

Hourly Observations for March 11, 2021

Temp ( °F °C ) Dew Point ( °F °C ) Humidity (%) Winds ( mph kmh ) Pressure ( in mb ) Visibility ( mi km ) Precip ( " mm )
12:58 am 00:58 Clear 17 -8.2 15 -9.5 90 90 W 10 17 30.16 1022 10 16 0.00 0.00
1:58 am 01:58 Clear 15 -9.2 13 -10.7 89 89 WNW 7 11 30.17 1022 10 16 0.00 0.00
2:58 am 02:58 Clear 18 -7.8 15 -9.7 86 86 W 7 11 30.15 1021 10 16 0.00 0.00
3:58 am 03:58 Clear 17 -8.3 14 -9.8 89 89 NNW 3 6 30.18 1022 10 16 0.00 0.00
4:58 am 04:58 Clear 17 -8.3 13 -10.3 86 86 SW 12 19 30.20 1023 10 16 0.00 0.00
5:58 am 05:58 Mostly Clear 20 -6.8 14 -9.9 79 79 SSW 14 22 30.22 1023 10 16 0.00 0.00
6:58 am 06:58 Sunny 20 -6.7 16 -8.9 85 85 SW 15 24 30.25 1025 10 16 0.00 0.00
7:58 am 07:58 Sunny 24 -4.3 21 -6 88 88 SW 15 24 30.27 1025 10 16 0.00 0.00
8:58 am 08:58 Sunny 29 -1.7 25 -3.9 85 85 SW 14 22 30.27 1025 10 16 0.00 0.00
9:58 am 09:58 Mostly Sunny 32 -0.2 26 -3.1 81 81 SSW 12 19 30.25 1024 10 16 0.00 0.00
10:58 am 10:58 Partly Cloudy 35 1.6 25 -3.9 67 67 S 8 13 30.23 1024 10 16 0.00 0.00
11:58 am 11:58 Mostly Cloudy 37 2.5 24 -4.6 60 60 SSE 9 15 30.23 1024 10 16 0.00 0.00
12:58 pm 12:58 Mostly Cloudy 37 3 23 -5 56 56 SSE 10 17 30.22 1023 10 16 0.00 0.00
1:58 pm 13:58 Cloudy 38 3.6 23 -4.8 55 55 SSW 13 20 30.21 1023 10 16 0.00 0.00
2:58 pm 14:58 Mostly Cloudy 39 3.9 22 -5.5 51 51 S 15 24 30.19 1022 10 16 0.00 0.00
3:58 pm 15:58 Mostly Sunny 42 5.6 22 -5.8 44 44 S 10 17 30.16 1022 10 16 0.00 0.00
4:58 pm 16:58 Mostly Sunny 40 4.3 23 -5 51 51 SSE 14 22 30.19 1022 10 16 0.00 0.00
5:58 pm 17:58 Partly Cloudy 35 1.9 24 -4.2 64 64 E 8 13 30.22 1024 10 16 0.00 0.00
6:58 pm 18:58 Mostly Cloudy with Light Snow 33 0.8 29 -1.9 82 82 E 8 13 30.28 1025 3 4 0.00 0.00
7:58 pm 19:58 Mostly Cloudy with Light Showers 33 0.4 27 -2.7 80 80 SE 10 17 30.27 1025 10 16 0.00 0.00
8:58 pm 20:58 Cloudy with Light Snow Showers 33 0.3 30 -1 91 91 SSE 5 7 30.27 1025 10 16 0.01 0.25
9:58 pm 21:58 Mostly Cloudy 30 -1 28 -2 93 93 ESE 5 7 30.29 1026 10 16 0.01 0.25
10:58 pm 22:58 Mostly Cloudy 31 -0.6 26 -3.3 82 82 SE 8 13 30.29 1026 10 16 0.00 0.00
11:58 pm 23:58 Cloudy 30 -0.9 27 -2.6 88 88 Calm 30.27 1025 10 16 0.00 0.00

Powered by AerisWeather